Location: Krakow
(50.0830°N, 19.9170°E)
Time: 08:41:28
(UTC+02:00)

Altair - Visible Passes

Search period start: 11 June 2026 00:00
Search period end: 21 June 2026 00:00
Orbit: 1501 x 1682 km, 47.2° (Epoch: 9 June)

Date Brightness Start Highest point End Pass type
(mag) Time Alt. Az. Time Alt. Az. Time Alt. Az.
11 Jun 7.5 01:49:47 10° W 01:59:18 75° S 02:09:13 10° ESE visible
11 Jun 8.0 21:18:22 10° SSW 21:26:09 32° SE 21:34:09 10° E visible
11 Jun 7.5 23:20:27 10° WSW 23:29:39 64° SSE 23:39:12 10° E visible
12 Jun 7.5 01:24:34 10° W 01:34:03 76° S 01:43:56 10° ESE visible
12 Jun 7.7 03:29:03 10° W 03:38:20 53° SSW 03:47:56 10° SE visible
12 Jun 7.5 22:55:19 10° SW 23:04:26 62° SSE 23:13:55 10° E visible
13 Jun 7.5 00:59:21 10° W 01:08:49 76° S 01:18:40 10° E visible
13 Jun 7.6 03:03:50 10° W 03:13:08 56° SSW 03:22:46 10° SE visible
13 Jun 7.5 22:30:11 10° SW 22:39:15 60° SSE 22:48:39 10° E visible
14 Jun 7.4 00:34:09 10° W 00:43:35 77° S 00:53:24 10° E visible
14 Jun 7.6 02:38:37 10° W 02:47:56 58° SSW 02:57:36 10° SE visible
14 Jun 7.5 22:05:05 10° SW 22:14:04 57° SSE 22:23:23 10° E visible
15 Jun 7.4 00:08:57 10° W 00:18:20 77° S 00:28:08 10° E visible
15 Jun 7.6 02:13:24 10° W 02:22:44 60° SSW 02:32:25 10° SE visible
15 Jun 7.6 21:39:58 10° SW 21:48:53 55° SSE 21:58:07 10° E visible
15 Jun 7.4 23:43:45 10° W 23:53:06 76° S 00:02:51 10° E visible
16 Jun 7.5 01:48:11 10° W 01:57:30 62° SSW 02:07:13 10° SE visible
16 Jun 7.4 23:18:33 10° WSW 23:27:53 76° S 23:37:35 10° E visible
17 Jun 7.5 01:22:58 10° W 01:32:18 64° SSW 01:42:00 10° ESE visible
17 Jun 8.1 03:27:46 10° W 03:35:56 32° SW 03:44:21 10° SSE visible
17 Jun 7.4 22:53:22 10° WSW 23:02:39 75° S 23:12:18 10° E visible
18 Jun 7.5 00:57:45 10° W 01:07:05 66° SSW 01:16:47 10° ESE visible
18 Jun 8.0 03:02:29 10° W 03:10:48 35° SW 03:19:22 10° SSE visible
18 Jun 7.4 22:28:10 10° WSW 22:37:25 74° S 22:47:02 10° E visible
19 Jun 7.5 00:32:33 10° W 00:41:52 68° SSW 00:51:33 10° ESE visible
19 Jun 8.0 02:37:13 10° W 02:45:39 37° SW 02:54:23 10° SSE visible
19 Jun 7.5 22:02:59 10° WSW 22:12:13 73° S 22:21:46 10° E visible
20 Jun 7.4 00:07:20 10° W 00:16:39 70° SSW 00:26:19 10° ESE visible
20 Jun 7.9 02:11:57 10° W 02:20:30 39° SW 02:29:21 10° SSE visible
20 Jun 7.5 21:37:49 10° WSW 21:47:00 72° SSE 21:56:30 10° E visible
